Flag for Chile Weather past 2 weeks in Iquique, Chile

Now
61 °F

Overcast.


Feels Like: 61 °F
Forecast: 59 / 67 °F
Wind: 3 mph from West

Location: Iquique / Diego Arac

Current Time: Jul 31, 2015 at 11:07:37 AM

Latest Report: Jul 31, 2015 at 11:00 AM


Visibility: N/A

Pressure: 30.04 "Hg

Humidity: 68%

Dew point: 50 °F

Location of IquiqueLocation

Historic Weather in Iquique — Graph

°F

Iquique temperature yesterday

Maximum temperature yesterday: 68 °F (at 3:00 PM)
Minimum temperature yesterday: 61 °F (at 8:00 AM)
Average temperature yesterday: 64 °F

Past Weeks' High & Low Weather Summary

 TemperatureHumidityPressure
High68 °F (Jul 30, 3:00 PM)83% (Jul 21, 7:00 PM)30.18 "Hg (Jul 21, 7:00 PM)
Low57 °F (Jul 20, 8:00 AM)53% (Jul 30, 3:00 PM)29.83 "Hg (Jul 25, 5:00 PM)
Average62 °F68%30.02 "Hg
* Reported Jul 16 10:00 AM — Jul 31 10:00 AM, Iquique, Weather by CustomWeather, © 2015

Note: Actual official high and low records may vary slightly from our data, if they occured in-between our weather recording intervals... More about our weather records

Advertising

Iquique weather history for previous 24 hours

 ConditionsComfort  
Time TempWeatherWind HumidityBarometerVisibility
10:00 AM
Fri, Jul 31
61 °FOvercast.6 mph72%30.04 "HgN/A
9:00 AM61 °FPartly sunny.6 mph68%30.01 "HgN/A
8:00 AM61 °FPartly sunny.6 mph68%30.01 "HgN/A
7:00 AM59 °FOvercast.6 mph72%30.01 "HgN/A
6:00 AM57 °FPassing clouds.6 mph77%30.01 "HgN/A
5:00 AM59 °FPassing clouds.8 mph72%30.01 "HgN/A
4:00 AM61 °FOvercast.7 mph63%30.04 "HgN/A
3:00 AM63 °FOvercast.13 mph68%30.04 "HgN/A
2:00 AM63 °FOvercast.13 mph73%30.07 "HgN/A
1:00 AM63 °FOvercast.12 mph73%30.09 "HgN/A
12:00 AM63 °FOvercast.13 mph68%30.09 "HgN/A
11:00 PM
Thu, Jul 30
63 °FOvercast.9 mph68%30.07 "HgN/A
10:00 PM63 °FOvercast.7 mph73%30.07 "HgN/A
9:00 PM63 °FPassing clouds.8 mph77%30.07 "HgN/A
8:00 PM63 °FOvercast.9 mph77%30.07 "HgN/A
7:00 PM64 °FPassing clouds.8 mph68%30.07 "HgN/A
6:00 PM64 °FPartly sunny.10 mph64%30.07 "HgN/A
5:00 PM66 °FPassing clouds.10 mph60%30.04 "HgN/A
4:00 PM66 °FPassing clouds.12 mph56%30.07 "HgN/A
3:00 PM68 °FPassing clouds.9 mph53%30.04 "HgN/A
2:00 PM66 °FPassing clouds.9 mph56%30.07 "HgN/A
1:00 PM66 °FPassing clouds.10 mph56%30.07 "HgN/A
12:00 PM66 °FPartly sunny.5 mph56%30.07 "HgN/A
11:00 AM64 °FOvercast.7 mph60%30.07 "HgN/A
Weather by CustomWeather, © 2015

See weather overviewHow to use our weather pages